Grey Islet, British Columbia

6:57 PM PDT on May 24, 2017 (GMT -0700)
Grey Islet

Weather History for CWEK - January, 2013

Change the Weather History Date:

Thursday, January 17, 2013

  Actual Average Record
Temperature  
Mean Temperature 44 °F -  
Max Temperature 46 °F - - ()
Min Temperature 42 °F - - ()
Degree Days  
Heating Degree Days 21    
Moisture  
Dew Point 44 °F    
Average Humidity 96    
Maximum Humidity 100    
Minimum Humidity 84    
Precipitation  
Precipitation 0.08 in - - ()
Sea Level Pressure  
Sea Level Pressure 29.97 in    
Wind  
Wind Speed 31 mph ()    
Max Wind Speed 47 mph    
Max Gust Speed 58 mph    
T = Trace of Precipitation, MM = Missing Value Source: Averaged Metar Reports

Daily Weather History Graph

Daily Weather History Graph

Search for Another Location

Airport or City:

Trip Planner

Search our weather history database for the weather conditions in past years. The results will help you decide how hot, cold, wet, or windy it might be!

Date:

Astronomy

Jan. 17, 2013 Rise Set
Actual Time 8:53 AM PST 4:53 PM PST
Civil Twilight 8:11 AM PST 5:35 PM PST
Nautical Twilight 7:26 AM PST 6:20 PM PST
Astronomical Twilight 6:43 AM PST 7:03 PM PST
Moon 10:52 AM PST (1/17) No Moon Set
Length of Visible Light 9h 23m
Length of Day
7h 59m
Waxing Crescent, 39% of the Moon is Illuminated
Jan 17
Waxing Crescent
Jan 18
First Quarter
Jan 26
Full
Feb 3
Last Quarter
Feb 9
New

Hourly Weather History & Observations

Time (PST) Temp. Windchill Dew Point Humidity Pressure Visibility Wind Dir Wind Speed Gust Speed Precip Events Conditions
12:00 AM 46.0 °F 36.7 °F 44.4 °F 94% 30.14 in - South 29.9 mph - N/A   Unknown
1:00 AM 46.0 °F 36.7 °F 44.1 °F 93% 30.10 in - South 29.9 mph 35.7 mph N/A   Unknown
2:00 AM 45.5 °F 34.9 °F 43.9 °F 94% 30.05 in - South 38.0 mph - N/A   Unknown
3:00 AM 45.9 °F 35.4 °F 43.9 °F 93% 30.03 in - South 38.0 mph 44.9 mph N/A   Unknown
4:00 AM 46 °F - 43 °F 84% 30.00 in - South 39.1 mph - -  
4:00 AM 45.7 °F 35.0 °F 42.8 °F 90% 30.00 in - South 39.1 mph - N/A   Unknown
5:00 AM 45.5 °F 34.6 °F 41.2 °F 85% 29.95 in - South 40.3 mph 46.0 mph N/A   Unknown
6:00 AM 45.3 °F 33.6 °F 40.6 °F 84% 29.88 in - South 47.2 mph 57.5 mph N/A   Unknown
7:00 AM 43.9 °F 32.6 °F 41.7 °F 92% 29.94 in - South 38.0 mph 46.0 mph 0.01 in   Unknown
8:00 AM 43.2 °F 30.9 °F 42.1 °F 96% 29.91 in - South 43.7 mph 51.8 mph 0.02 in   Unknown
9:00 AM 43.3 °F 31.0 °F 42.4 °F 97% 29.92 in - South 44.9 mph 55.2 mph N/A   Unknown
10:00 AM 43 °F - 43 °F 99% 29.93 in - South 43.7 mph - -  
10:00 AM 43.0 °F 30.7 °F 42.8 °F 99% 29.93 in - South 43.7 mph 50.6 mph N/A   Unknown
11:00 AM 43.0 °F 30.8 °F 42.8 °F 99% 29.93 in - South 42.6 mph 49.5 mph N/A   Unknown
12:00 PM 44.2 °F 32.7 °F 44.2 °F 100% 29.94 in - South 41.4 mph 49.5 mph N/A   Unknown
1:00 PM 45.0 °F 34.3 °F 45.0 °F 100% 29.95 in - South 36.8 mph 46.0 mph N/A   Unknown
2:00 PM 45.1 °F 35.1 °F 45.1 °F 100% 29.96 in - South 32.2 mph - N/A   Unknown
3:00 PM 45.1 °F 35.1 °F 45.1 °F 100% 29.95 in - South 32.2 mph - N/A   Unknown
4:00 PM 45 °F - 45 °F 100% 29.94 in - South 29.9 mph - -  
4:00 PM 45.1 °F 35.5 °F 45.1 °F 100% 29.94 in - South 29.9 mph - N/A   Unknown
5:00 PM 45.3 °F 35.7 °F 45.3 °F 100% 29.94 in - South 29.9 mph - N/A   Unknown
6:00 PM 45.9 °F 36.8 °F 45.9 °F 100% 29.93 in - South 27.6 mph - 0.01 in   Unknown
7:00 PM 45.3 °F 36.3 °F 45.3 °F 100% 29.94 in - SSW 26.5 mph - N/A   Unknown
8:00 PM 45.1 °F 36.4 °F 45.1 °F 100% 29.95 in - SSW 24.2 mph - 0.03 in   Unknown
9:00 PM 45.0 °F 36.0 °F 45.0 °F 100% 29.97 in - SW 25.3 mph - 0.02 in   Unknown
10:00 PM 44 °F - 44 °F 100% 29.98 in - SSW 20.7 mph - -  
10:00 PM 44.2 °F 35.9 °F 44.2 °F 100% 29.98 in - SSW 20.7 mph - 0.02 in   Unknown
11:00 PM 44.4 °F 36.1 °F 44.4 °F 100% 29.99 in - SSW 20.7 mph - 0.03 in   Unknown